Back to catalog

STARLINK-37555

AliveCommunicationsSSO
NORAD 69431·PAYLOAD·🇺🇸 United States

Launched Jun 7, 2026 from Vandenberg Space Force Base

Loading…

Next Passes (next 24 hours)

TLE

FreshSource: CelesTrak SupGP

Epoch: Sep 14, 2026, 21:16 UTC

1 69431C 26126M   26257.88659722  .00022111  00000+0  68668-3 0  2579
2 69431  97.2846 119.2245 0001940  91.1729 344.5051 15.33412354    12

Track STARLINK-37555 in real time with AllMySat

Download on the App Store